CFG297 EDDC-EDDH

Flight info

Callsign CFG297
Flight time 0h 40m
Altitude 28000
Route OSKAN9E OSKAN M748 RARUP RARUP3D
Aircraft A321/M-SDE3FGHIRWY/LB1

Departure

Time 2026-05-01 11:16
Airport Dresden Airport (EDDC)

Arrival

Time 2026-05-01 11:56
Airport Hamburg Helmut Schmidt Airport (EDDH)
Time Latitude Longitude Altitude Speed Heading
2026-05-01 10:58 51.12737 13.76764 711 ft 0 kts 40°
2026-05-01 11:08 51.12720 13.76741 715 ft 2 kts 40°
2026-05-01 11:09 51.12708 13.76724 713 ft 2 kts 40°
2026-05-01 11:09 51.12694 13.76709 715 ft 2 kts 13°
2026-05-01 11:09 51.12680 13.76710 714 ft 0 kts 317°
2026-05-01 11:11 51.12688 13.76696 714 ft 7 kts 314°
2026-05-01 11:12 51.12737 13.76611 712 ft 11 kts 311°
2026-05-01 11:12 51.12766 13.76509 711 ft 10 kts 252°
2026-05-01 11:12 51.12726 13.76434 715 ft 8 kts 223°
2026-05-01 11:12 51.12654 13.76335 711 ft 20 kts 221°
2026-05-01 11:13 51.12554 13.76198 713 ft 14 kts 222°
2026-05-01 11:13 51.12541 13.76166 713 ft 0 kts 253°
2026-05-01 11:14 51.12541 13.76164 713 ft 2 kts 256°
2026-05-01 11:15 51.12571 13.76068 714 ft 16 kts 310°
2026-05-01 11:15 51.12644 13.75936 712 ft 16 kts 311°
2026-05-01 11:15 51.12724 13.75848 715 ft 13 kts
2026-05-01 11:15 51.12805 13.75935 714 ft 20 kts 40°
2026-05-01 11:16 51.13102 13.76343 715 ft 91 kts 41°
2026-05-01 11:16 51.13731 13.77206 714 ft 145 kts 40°
2026-05-01 11:16 51.14550 13.78322 1156 ft 153 kts 41°
2026-05-01 11:16 51.15302 13.79464 1891 ft 152 kts 43°
2026-05-01 11:17 51.16115 13.80637 2339 ft 167 kts 42°
2026-05-01 11:17 51.17044 13.81900 2704 ft 183 kts 40°
2026-05-01 11:17 51.18049 13.83224 3130 ft 194 kts 40°
2026-05-01 11:17 51.19197 13.84525 3423 ft 215 kts 23°
2026-05-01 11:18 51.20772 13.84876 3498 ft 248 kts 353°
2026-05-01 11:18 51.22515 13.84225 4085 ft 258 kts 351°
2026-05-01 11:18 51.24291 13.83834 4969 ft 260 kts 357°
2026-05-01 11:18 51.26108 13.83604 5792 ft 263 kts 359°
2026-05-01 11:19 51.27938 13.83394 6691 ft 264 kts 359°
2026-05-01 11:19 51.29746 13.83154 7539 ft 265 kts 358°
2026-05-01 11:19 51.31562 13.82453 8332 ft 275 kts 342°
2026-05-01 11:19 51.33239 13.80905 9090 ft 284 kts 326°
2026-05-01 11:20 51.34739 13.78778 9833 ft 290 kts 322°
2026-05-01 11:20 51.36248 13.76624 10605 ft 293 kts 323°
2026-05-01 11:20 51.37831 13.74396 10862 ft 314 kts 323°
2026-05-01 11:20 51.39537 13.72015 11016 ft 337 kts 323°
2026-05-01 11:21 51.41358 13.69473 11234 ft 355 kts 323°
2026-05-01 11:21 51.43238 13.66832 11776 ft 363 kts 323°
2026-05-01 11:21 51.45115 13.64178 12420 ft 367 kts 323°
2026-05-01 11:21 51.47038 13.61454 13085 ft 371 kts 323°
2026-05-01 11:22 51.48985 13.58693 13735 ft 375 kts 323°
2026-05-01 11:22 51.50947 13.55911 14368 ft 379 kts 323°
2026-05-01 11:22 51.52934 13.53091 14950 ft 382 kts 323°
2026-05-01 11:22 51.54935 13.50248 15547 ft 385 kts 323°
2026-05-01 11:23 51.56948 13.47384 16145 ft 388 kts 323°
2026-05-01 11:23 51.58976 13.44493 16718 ft 391 kts 323°
2026-05-01 11:23 51.61020 13.41579 17295 ft 394 kts 323°
2026-05-01 11:23 51.63046 13.38688 17845 ft 396 kts 323°
2026-05-01 11:24 51.65118 13.35734 18402 ft 399 kts 323°
2026-05-01 11:24 51.67205 13.32760 18903 ft 402 kts 323°
2026-05-01 11:24 51.71415 13.26736 19864 ft 407 kts 323°
2026-05-01 11:25 51.73531 13.23694 20324 ft 409 kts 323°
2026-05-01 11:25 51.77773 13.17571 21252 ft 414 kts 323°
2026-05-01 11:25 51.79924 13.14467 21709 ft 416 kts 323°
2026-05-01 11:26 51.82088 13.11339 22174 ft 419 kts 322°
2026-05-01 11:26 51.86457 13.05016 23073 ft 424 kts 322°
2026-05-01 11:26 51.88660 13.01819 23521 ft 426 kts 322°
2026-05-01 11:27 51.90872 12.98604 23943 ft 429 kts 322°
2026-05-01 11:27 51.93098 12.95368 24307 ft 432 kts 322°
2026-05-01 11:27 51.95340 12.92107 24663 ft 434 kts 322°
2026-05-01 11:27 51.97588 12.88837 25020 ft 436 kts 322°
2026-05-01 11:28 51.99849 12.85538 25372 ft 438 kts 322°
2026-05-01 11:28 52.02088 12.82265 25728 ft 440 kts 322°
2026-05-01 11:28 52.04370 12.78927 26079 ft 442 kts 322°
2026-05-01 11:29 52.08958 12.72193 26784 ft 446 kts 322°
2026-05-01 11:29 52.11265 12.68790 27123 ft 448 kts 322°
2026-05-01 11:29 52.15904 12.61938 27790 ft 452 kts 322°
2026-05-01 11:30 52.18237 12.58490 28118 ft 454 kts 322°
2026-05-01 11:30 52.20582 12.55021 28373 ft 456 kts 322°
2026-05-01 11:30 52.22880 12.51615 28421 ft 447 kts 322°
2026-05-01 11:31 52.27398 12.44771 28420 ft 443 kts 320°
2026-05-01 11:31 52.31661 12.37485 28421 ft 444 kts 316°
2026-05-01 11:32 52.36027 12.30407 28422 ft 441 kts 322°
2026-05-01 11:32 52.40575 12.23767 28417 ft 441 kts 322°
2026-05-01 11:33 52.45191 12.17159 28415 ft 441 kts 322°
2026-05-01 11:33 52.49799 12.10536 28407 ft 441 kts 322°
2026-05-01 11:34 52.54402 12.03867 28406 ft 441 kts 322°
2026-05-01 11:34 52.58991 11.97179 28399 ft 441 kts 322°
2026-05-01 11:35 52.63581 11.90472 28404 ft 441 kts 322°
2026-05-01 11:35 52.68314 11.84170 28405 ft 440 kts 326°
2026-05-01 11:36 52.73225 11.78158 28402 ft 440 kts 327°
2026-05-01 11:36 52.77890 11.71587 28403 ft 442 kts 320°
2026-05-01 11:37 52.82377 11.64630 28397 ft 443 kts 320°
2026-05-01 11:37 52.86844 11.57607 28393 ft 443 kts 319°
2026-05-01 11:38 52.91313 11.50584 28256 ft 441 kts 319°
2026-05-01 11:38 52.93539 11.47095 27442 ft 442 kts 319°
2026-05-01 11:38 52.95784 11.43577 26553 ft 445 kts 319°
2026-05-01 11:38 52.98007 11.40095 25862 ft 445 kts 319°
2026-05-01 11:39 53.00247 11.36584 25258 ft 441 kts 319°
2026-05-01 11:39 53.02468 11.33095 24655 ft 438 kts 319°
2026-05-01 11:39 53.04672 11.29617 24073 ft 435 kts 319°
2026-05-01 11:39 53.06857 11.26163 23415 ft 432 kts 319°
2026-05-01 11:40 53.09027 11.22729 22778 ft 429 kts 319°
2026-05-01 11:40 53.11174 11.19325 22155 ft 425 kts 319°
2026-05-01 11:40 53.13308 11.15936 21542 ft 422 kts 319°
2026-05-01 11:40 53.15418 11.12579 20942 ft 418 kts 319°
2026-05-01 11:41 53.17515 11.09242 20351 ft 415 kts 319°
2026-05-01 11:41 53.19565 11.05977 19777 ft 412 kts 319°
2026-05-01 11:41 53.21653 11.02648 19202 ft 408 kts 319°
2026-05-01 11:41 53.23672 10.99425 18644 ft 406 kts 319°
2026-05-01 11:42 53.25705 10.96181 18003 ft 403 kts 319°
2026-05-01 11:42 53.27721 10.92960 17389 ft 401 kts 319°
2026-05-01 11:42 53.29728 10.89745 16812 ft 399 kts 319°
2026-05-01 11:42 53.31722 10.86540 16254 ft 396 kts 318°
2026-05-01 11:43 53.33700 10.83349 15700 ft 394 kts 318°
2026-05-01 11:43 53.35669 10.80165 15156 ft 392 kts 318°
2026-05-01 11:43 53.37630 10.76993 14618 ft 391 kts 318°
2026-05-01 11:44 53.41527 10.70697 13517 ft 387 kts 317°
2026-05-01 11:44 53.43456 10.67580 12996 ft 384 kts 317°
2026-05-01 11:44 53.45345 10.64520 12505 ft 381 kts 317°
2026-05-01 11:44 53.47240 10.61437 12001 ft 378 kts 317°
2026-05-01 11:45 53.49120 10.58373 11512 ft 375 kts 317°
2026-05-01 11:45 53.50986 10.55325 11028 ft 373 kts 317°
2026-05-01 11:45 53.52838 10.52301 10550 ft 370 kts 317°
2026-05-01 11:45 53.54380 10.49769 10367 ft 361 kts 316°
2026-05-01 11:46 53.56160 10.46847 9934 ft 357 kts 317°
2026-05-01 11:46 53.57933 10.43949 9441 ft 355 kts 316°
2026-05-01 11:46 53.59700 10.41067 8987 ft 352 kts 316°
2026-05-01 11:46 53.61457 10.38201 8465 ft 351 kts 316°
2026-05-01 11:47 53.63177 10.35385 8020 ft 348 kts 315°
2026-05-01 11:47 53.64907 10.32548 7586 ft 346 kts 316°
2026-05-01 11:47 53.66623 10.29729 7395 ft 344 kts 315°
2026-05-01 11:47 53.68336 10.26915 7410 ft 345 kts 315°
2026-05-01 11:48 53.70050 10.24100 7200 ft 342 kts 315°
2026-05-01 11:48 53.71747 10.21308 6703 ft 340 kts 315°
2026-05-01 11:48 53.73437 10.18534 6239 ft 337 kts 315°
2026-05-01 11:48 53.75112 10.15785 5761 ft 335 kts 315°
2026-05-01 11:49 53.76761 10.13038 5336 ft 332 kts 314°
2026-05-01 11:49 53.78395 10.10298 4883 ft 330 kts 315°
2026-05-01 11:49 53.80016 10.07580 4472 ft 327 kts 314°
2026-05-01 11:49 53.81618 10.04950 4038 ft 325 kts 316°
2026-05-01 11:50 53.83235 10.02323 3594 ft 320 kts 313°
2026-05-01 11:50 53.84493 9.99260 3188 ft 317 kts 296°
2026-05-01 11:50 53.85460 9.95932 2983 ft 315 kts 294°
2026-05-01 11:50 53.86403 9.92588 3000 ft 314 kts 294°
2026-05-01 11:51 53.87026 9.89063 3008 ft 314 kts 273°
2026-05-01 11:51 53.86767 9.85447 2987 ft 310 kts 248°
2026-05-01 11:51 53.85651 9.82379 3012 ft 304 kts 224°
2026-05-01 11:51 53.83987 9.80508 3007 ft 282 kts 198°
2026-05-01 11:52 53.82176 9.79906 2993 ft 249 kts 186°
2026-05-01 11:52 53.80552 9.79800 2988 ft 223 kts 165°
2026-05-01 11:52 53.79230 9.81057 3048 ft 222 kts 135°
2026-05-01 11:52 53.78162 9.82914 2815 ft 217 kts 139°
2026-05-01 11:53 53.76993 9.84570 2391 ft 216 kts 142°
2026-05-01 11:53 53.75806 9.86189 2029 ft 220 kts 142°
2026-05-01 11:53 53.74644 9.87793 1987 ft 206 kts 141°
2026-05-01 11:53 53.73611 9.89220 1998 ft 179 kts 141°
2026-05-01 11:54 53.72682 9.90500 1994 ft 166 kts 141°
2026-05-01 11:54 53.71793 9.91711 1897 ft 165 kts 142°
2026-05-01 11:54 53.70832 9.92725 1660 ft 163 kts 151°
2026-05-01 11:54 53.69897 9.93590 1426 ft 149 kts 151°
2026-05-01 11:55 53.68984 9.94433 947 ft 151 kts 152°
2026-05-01 11:55 53.68067 9.95257 684 ft 146 kts 153°
2026-05-01 11:55 53.67177 9.96059 376 ft 141 kts 152°
2026-05-01 11:55 53.66296 9.96791 224 ft 140 kts 153°
2026-05-01 11:56 53.65433 9.97530 103 ft 138 kts 152°
2026-05-01 11:56 53.64613 9.98240 50 ft 115 kts 154°
2026-05-01 11:56 53.64090 9.98690 52 ft 50 kts 152°
2026-05-01 11:56 53.63931 9.98950 50 ft 17 kts 126°
2026-05-01 11:57 53.63921 9.98973 50 ft 0 kts 126°
2026-05-01 11:57 53.63869 9.99096 50 ft 18 kts 126°
2026-05-01 11:57 53.63795 9.99267 49 ft 18 kts 126°
2026-05-01 11:58 53.63722 9.99434 51 ft 18 kts 126°
2026-05-01 11:58 53.63650 9.99601 49 ft 18 kts 126°
2026-05-01 11:58 53.63615 9.99683 51 ft 0 kts 126°
2026-05-01 11:59 53.63614 9.99684 51 ft 1 kts 126°
2026-05-01 12:00 53.63484 9.99986 51 ft 28 kts 126°
2026-05-01 12:00 53.63408 10.00167 48 ft 10 kts 125°
2026-05-01 12:00 53.63335 10.00256 51 ft 6 kts 113°
2026-05-01 12:01 53.63331 10.00324 51 ft 5 kts 87°
2026-05-01 12:01 53.63332 10.00344 51 ft 0 kts 87°